Regional Weather Roundup
Issued by NWS Grand Forks, ND

Home | Current Version | Previous Version | Graphics & Text | Print | Product List | Glossary On
Versions: 1 2 3 4 5 6 7 8 9 10 11 12 13 14 15 16 17 18 19 20 21 22 23 24 25 26 27 28 29 30 31 32 33 34 35 36 37 38 39 40 41 42 43 44 45 46 47 48 49 50
000
ASUS43 KFGF 020510
RWRFGF
PRAIRIE TO PINES  WEATHER ROUNDUP
NATIONAL WEATHER SERVICE EASTERN NORTH DAKOTA/GRAND FORKS ND
1200 AM CDT TUE SEP 02 2014

 **SATELLITE DATA USED TO AUGMENT SKY COVER AT AUTOMATED STATIONS**
 *****  WEATHER ACROSS EASTERN NORTH DAKOTA  *****

CITY           SKY/WX    TMP DP  RH WIND       PRES   REMARKS
GRAND FORKS    CLEAR     55  50  83 SW5       29.76F
GRAND FRKS AFB CLEAR     52  52  99 W6        29.78S
GRAND FRKS NWS   N/A     52 N/A N/A W2          N/A
DEVILS LAKE    CLEAR     61  50  67 SW9       29.78S
FARGO          PTCLDY    57  53  86 S6        29.80S
WAHPETON ARPT  MOCLDY    55  52  88 SW3       29.82S
$$

 ***** WEATHER ACROSS CENTRAL AND WESTERN NORTH DAKOTA  *****

CITY           SKY/WX    TMP DP  RH WIND       PRES   REMARKS
BISMARCK       CLEAR     55  50  83 SW5       29.87R
MINOT          CLEAR     55  47  74 SW9       29.80F
JAMESTOWN      CLEAR     55  49  80 W3        29.82F
MINOT AFB      CLEAR     50  49  97 W7        29.80S
GARRISON         N/A     53  51  93 W6        29.84R
WILLISTON      PTCLDY    55  49  80 SW5       29.82F
DICKINSON      CLEAR     51  45  79 S10       29.88S
HETTINGER      CLEAR     52  45  77 CALM      29.93S
$$

 *****  OTHER AIRPORT OBSERVATIONS IN OUR AREA  *****

CITY           SKY/WX    TMP DP  RH WIND       PRES   REMARKS
WALHALLA         N/A     57  48  72 SW6       29.75S
GRAFTON AIRPOR FAIR      54  48  82 SW8       29.75F
VALLEY CITY AR FAIR      54  54 100 S3        29.82S
CANDO          FAIR      48  46  93 W7        29.79S
CAVALIER APRT  FAIR      55  48  76 W6        29.74F
GWINNER        CLEAR     57  55  94 W8        29.84S
SHEYENNE NWR     N/A     53  53  98 CALM      29.95S
ROLLA          FAIR      52  48  87 W9        29.79S
 ***** THE ABOVE OBSERVATIONS ARE NON NWS ARE NOT QUALITY
       CONTROLLED AND MAY MIS-REPORT RAIN FOR SNOW...
$$

  *****  WEATHER ACROSS NORTHERN MINNESOTA  *****

CITY           SKY/WX    TMP DP  RH WIND       PRES   REMARKS
FLAG ISLAND    CLEAR     57  54  88 SW16      29.68F
WARROAD        CLEAR     55  52  88 SW8       29.73S
ROSEAU           N/A     55  52  88 SW7       29.73S
HALLOCK        CLEAR     54  50  87 SW5       29.74S
THF RVR FALLS  CLEAR     55  54  94 SW9       29.78S
BAUDETTE       CLEAR     50  48  93 SW3       29.73S
WASKISH        CLEAR     55  54  94 CALM      29.76S
CROOKSTON      CLEAR     54  52  94 SW6       29.78F
$$
  *****  WEATHER ACROSS CENTRAL AND WEST MINNESOTA  *****

CITY           SKY/WX    TMP DP  RH WIND       PRES   REMARKS
FOSSTON        CLEAR     50  48  93 S5        29.80S
BEMIDJI        CLEAR     55  49  82 W5        29.78F
PARK RAPIDS    CLEAR     51  51 100 W3        29.80S
ELBOW LAKE     FAIR      58  55  89 CALM      29.82S
WADENA         CLEAR     52  52 100 CALM      29.80S
DETROIT LAKES  CLEAR     55  54  94 CALM      29.82F
MOORHEAD       PTCLDY    57  57 100 CALM      29.81S
FERGUS FALLS   MOCLDY    55  54  94 CALM      29.82S
MORRIS MN      CLOUDY    61  55  82 W6        29.82R
STAPLES        CLEAR     54  52  94 CALM      29.80S
$$
  *****  WEATHER ELSEWHERE ACROSS MINNESOTA  *****

CITY           SKY/WX    TMP DP  RH WIND       PRES   REMARKS
DULUTH         CLOUDY    58  51  78 W7        29.76F
INTRNTL FALLS  CLEAR     51  49  92 W6        29.73S
ELY            MOCLDY    50  48  93 CALM      29.74S
CLOQUET        CLOUDY    57  52  82 W6        29.78R
WHEATON        CLOUDY    57  54  88 SW5       29.84S
BRAINERD       PTCLDY    54  53  97 W5        29.79F
HIBBING        PTCLDY    50  47  89 CALM      29.77R
ALEXANDRIA     MOCLDY    59  53  80 CALM      29.82F
SAINT CLOUD    MOCLDY    62  55  77 CALM      29.81S
MINNEAPOLIS    PTCLDY    66  59  78 S5        29.80F
$$

  *****  WEATHER ACROSS SOUTH DAKOTA  *****

CITY           SKY/WX    TMP DP  RH WIND       PRES   REMARKS
SIOUX FALLS    CLOUDY    63  54  72 W10       29.89S
BROOKINGS      NOT AVBL
WATERTOWN      CLOUDY    61  52  72 W8        29.87R
HURON          CLOUDY    60  55  83 SW8       29.87S
SISSETON         N/A     61  55  81 W6        29.83S
ABERDEEN       CLOUDY    54  54 100 SW5       29.86R
MITCHELL       CLOUDY    61  57  87 SW5       29.90R
PIERRE         PTCLDY    55  51  86 NW7       29.91R
MOBRIDGE       CLEAR     52  52 100 W3        29.87S
RAPID CITY     CLEAR     50  47  89 NW3       30.01R
$$

  *****  SOME WEATHER IN NEARBY STATES *****

CITY           SKY/WX    TMP DP  RH WIND       PRES   REMARKS
GLASGOW MT     MOCLDY    63  47  55 S8        29.80F
GREAT FALLS MT CLEAR     52  38  58 SW8       29.92S
CHEYENNE WY    CLEAR     51  43  74 NW3       30.18R
SCOTTSBLUFF NE CLEAR     53  48  83 CALM      30.09R
OMAHA NE       PTCLDY    64  62  93 NW5       29.95R
DES MOINES IA  PTCLDY    67  63  87 S8        29.89R
DAVENPORT IA   CLOUDY    69  66  90 SE7       29.85F
CHICAGO IL     CLOUDY    72  66  81 W6        29.86R
EAU CLAIRE WI  CLEAR     60  58  92 SW5       29.81R
LA CROSSE WI   PTCLDY    63  60  90 SE3       29.84R
$$

  *****  SOME NATIONAL WEATHER *****

CITY           SKY/WX    TMP DP  RH WIND       PRES   REMARKS
LA GUARDIA NY  CLEAR     81  73  76 S8        29.93S
RALEIGH NC     PTCLDY    80  71  74 SW8       30.06R
ATLANTA GA     MOCLDY    75  71  87 CALM      30.11F
NEW ORLEANS LA MOCLDY    81  75  82 S9        30.02F
OKLAHOMA CITY  MOCLDY    83  67  58 S12       29.86S
ALBUQUERQUE NM CLEAR     78  39  24 S3        30.08R
SALT LAKE CITY CLEAR     66  33  29 SE9       30.05S
LOS ANGELES CA CLEAR     70  65  84 CALM      29.82R
BOISE ID       CLEAR     63  37  38 SE6       29.98F
SEATTLE WA     MOCLDY    64  52  64 N7        30.00S
$$

*** WEATHER ACROSS MANITOBA...SASKATCHEWAN AND ONTARIO ***
                ***ONTARIO***

CITY           SKY/WX    TMP DP  RH WIND       PRES   REMARKS
GERALDTON      MOCLDY    59  57  94 W5        29.58S
THUNDER BAY    CLEAR     55  55 100 W7        29.67R
SIOUX LOOKOUT  CLEAR     55  52  88 W5        29.64F
TORONTO        PTCLDY    72  68  88 SW13G21   29.79R
BIG TROUT LK   CLOUDY    57  54  88 NW5       29.46S
PICKLE LAKE    NOT AVBL
DRYDEN         CLEAR     54  52  94 N6        29.68R
KENORA           N/A     57  55  94 W8        29.68F
$$
                *** MANITOBA***

CITY           SKY/WX    TMP DP  RH WIND       PRES   REMARKS
BRANDON        CLEAR     48  46  93 W8        29.75S
DAUPHIN        CLEAR     52  48  87 W8        29.69F
ISLAND LAKE    MOCLDY    55  52  88 CALM      29.56F
PILOT MOUND      N/A     48  45  87 SW6         N/A
THE PAS        PTCLDY    54  48  82 W6        29.60F
THOMPSON       PTCLDY    46  46 100 W5        29.52F
WINNIPEG       CLEAR     54  48  82 W8        29.70F
CHURCHILL      CLOUDY    52  50  93 E6        29.50F
GILLAM         PTCLDY    59  50  72 NW5       29.49S
$$
                ***SASKATCHEWAN***

CITY           SKY/WX    TMP DP  RH WIND       PRES   REMARKS
ESTEVAN        NOT AVBL
KINDERSLEY     PTCLDY    50  46  87 N5        29.74R
LLOYDMINSTER   MOCLDY    50  45  81 W8        29.71F
PRINCE ALBERT  CLOUDY    54  48  82 CALM      29.68S
REGINA         MOCLDY    52  46  82 S7        29.74F
YORKTON        PTCLDY    54  46  76 SW8       29.71F
N. BATTLEFORD  CLOUDY    50  46  87 CALM      29.73R
LA RONGE       PTCLDY    48  46  93 W5        29.62F
SASKATOON      MOCLDY    52  50  93 W7        29.72S
SWIFT CURRENT  MOCLDY    50  45  81 S10       29.74F
$$
NOTE: THESE ARE AUTOMATED STATIONS WITH LIMITED QUALITY CONTROL
      "FAIR" INDICATES FEW OR NO CLOUDS BELOW 12,000 FEET WITH NO
      SIGNIFICANT WEATHER AND/OR OBSTRUCTIONS TO VISIBILITY.
      SKY/WX - SKY CONDITION AND SIGNIFICANT WEATHER.
      TMP - AIR TEMPERATURE.    DP   - DEWPOINT TEMPERATURE.
      RH  - RELATIVE HUMIDITY.  PRES - PRESSURE.
      HX  - HEAT INDEX.         WCI  - WIND CHILL INDEX.
$



USA.gov is the U.S. government's official web portal to all federal, state and local government web resources and services.